Total_Precipitation_Accumulation
0.00 0.00 0.00 0.00 0.00 0.00 0.01 0.01 0.01 0.03 0.02 0.03 0.04 0.12 0.27 0.35 0.36 0.35 0.32 0.36 0.62 1.05 1.32 1.46 1.62 1.73 1.93 2.16 2.41 2.66 2.91 3.08 2.96 3.00 3.05 2.99 2.69 2.58 2.34 2.10 1.86 1.78 1.75 1.88
0.00 0.01 0.00 0.00 0.00 0.01 0.01 0.01 0.02 0.03 0.03 0.05 0.08 0.16 0.29 0.35 0.41 0.41 0.40 0.50 0.62 0.88 1.23 1.37 1.42 1.54 1.69 1.94 2.38 2.79 2.77 2.71 2.62 2.80 3.08 3.27 3.24 2.88 2.36 2.14 2.01 1.79 1.70 1.80
0.01 0.02 0.01 0.00 0.00 0.01 0.02 0.02 0.04 0.03 0.03 0.06 0.10 0.27 0.39 0.37 0.44 0.46 0.47 0.56 0.67 0.83 0.98 1.10 1.10 1.16 1.32 1.60 1.92 2.06 1.88 1.91 1.88 1.97 2.23 2.41 2.70 2.58 2.29 2.03 1.88 1.78 1.73 1.71
0.01 0.01 0.00 0.01 0.01 0.01 0.02 0.03 0.02 0.02 0.03 0.06 0.11 0.28 0.48 0.66 0.75 0.62 0.59 0.63 0.83 0.94 0.95 0.99 1.02 1.11 1.12 1.09 1.06 1.08 1.15 1.25 1.35 1.49 1.74 2.00 2.27 2.26 2.17 2.11 1.85 1.65 1.52 1.47
0.02 0.01 0.01 0.02 0.03 0.02 0.03 0.03 0.02 0.03 0.03 0.05 0.11 0.25 0.54 0.84 0.92 0.72 0.67 0.73 0.89 0.87 0.81 0.83 0.89 0.93 0.91 0.90 0.92 0.93 1.03 1.18 1.30 1.41 1.56 1.75 2.09 2.08 1.91 1.77 1.62 1.54 1.45 1.38
0.03 0.02 0.02 0.02 0.03 0.02 0.03 0.03 0.04 0.05 0.08 0.16 0.21 0.28 0.57 0.84 0.74 0.71 0.69 0.70 0.73 0.69 0.71 0.76 0.76 0.76 0.76 0.77 0.87 0.93 0.95 1.04 1.11 1.18 1.28 1.33 1.49 1.55 1.45 1.39 1.34 1.27 1.19 1.17
0.10 0.08 0.06 0.03 0.03 0.04 0.04 0.06 0.17 0.32 0.41 0.46 0.35 0.47 0.89 0.82 0.69 0.66 0.68 0.71 0.73 0.69 0.61 0.63 0.68 0.70 0.73 0.74 0.77 0.82 0.86 0.90 0.88 0.85 0.83 0.83 0.93 1.06 1.10 1.10 1.10 1.08 0.97 0.92
0.19 0.20 0.12 0.06 0.05 0.07 0.09 0.14 0.34 0.39 0.34 0.36 0.36 0.71 1.04 0.72 0.66 0.62 0.55 0.53 0.51 0.48 0.45 0.45 0.49 0.54 0.58 0.62 0.64 0.66 0.69 0.72 0.74 0.74 0.76 0.71 0.74 0.84 0.92 1.00 0.97 0.94 0.84 0.74
0.11 0.12 0.07 0.05 0.05 0.08 0.17 0.22 0.22 0.35 0.35 0.38 0.46 0.72 0.80 0.65 0.65 0.59 0.56 0.53 0.49 0.44 0.40 0.38 0.38 0.41 0.40 0.41 0.43 0.47 0.53 0.61 0.66 0.69 0.70 0.63 0.66 0.79 0.85 0.91 0.94 0.97 0.96 0.88
0.05 0.06 0.06 0.04 0.05 0.10 0.12 0.13 0.20 0.31 0.34 0.35 0.37 0.65 0.92 0.92 0.84 0.74 0.78 0.69 0.57 0.45 0.36 0.31 0.27 0.26 0.25 0.28 0.34 0.45 0.58 0.63 0.58 0.55 0.52 0.49 0.57 0.75 0.80 0.76 0.77 0.89 0.94 0.94
0.02 0.03 0.06 0.08 0.08 0.09 0.12 0.15 0.21 0.27 0.26 0.32 0.39 0.55 0.50 0.65 0.76 0.77 0.71 0.64 0.52 0.40 0.33 0.29 0.23 0.19 0.19 0.22 0.28 0.39 0.47 0.53 0.52 0.46 0.42 0.39 0.43 0.50 0.58 0.63 0.65 0.72 0.79 0.85
0.01 0.03 0.06 0.11 0.08 0.06 0.09 0.13 0.22 0.35 0.36 0.40 0.47 0.54 0.33 0.40 0.47 0.47 0.42 0.36 0.31 0.27 0.23 0.20 0.19 0.19 0.20 0.23 0.28 0.33 0.36 0.38 0.41 0.39 0.38 0.39 0.39 0.38 0.37 0.41 0.47 0.51 0.57 0.62
0.02 0.05 0.10 0.24 0.28 0.16 0.15 0.12 0.16 0.21 0.28 0.32 0.42 0.48 0.35 0.37 0.40 0.44 0.45 0.41 0.32 0.25 0.22 0.21 0.20 0.20 0.22 0.27 0.31 0.34 0.39 0.39 0.41 0.39 0.38 0.41 0.40 0.38 0.33 0.32 0.35 0.37 0.38 0.38
0.02 0.04 0.06 0.12 0.12 0.09 0.12 0.14 0.17 0.22 0.31 0.30 0.29 0.37 0.45 0.48 0.48 0.44 0.42 0.40 0.35 0.25 0.18 0.19 0.21 0.22 0.24 0.27 0.28 0.28 0.33 0.39 0.44 0.48 0.55 0.55 0.50 0.45 0.38 0.32 0.30 0.29 0.29 0.29
0.01 0.01 0.02 0.03 0.05 0.08 0.11 0.11 0.15 0.19 0.22 0.34 0.27 0.28 0.37 0.40 0.43 0.41 0.34 0.29 0.25 0.21 0.19 0.19 0.22 0.25 0.25 0.25 0.26 0.26 0.29 0.33 0.37 0.43 0.53 0.58 0.53 0.47 0.42 0.34 0.28 0.27 0.27 0.24
0.02 0.02 0.02 0.04 0.10 0.13 0.14 0.14 0.13 0.12 0.12 0.17 0.20 0.25 0.22 0.22 0.27 0.30 0.28 0.26 0.24 0.23 0.20 0.17 0.17 0.17 0.20 0.21 0.20 0.21 0.23 0.25 0.27 0.31 0.38 0.45 0.47 0.44 0.39 0.32 0.27 0.25 0.23 0.24
0.03 0.02 0.02 0.04 0.09 0.13 0.21 0.18 0.13 0.09 0.07 0.13 0.26 0.30 0.21 0.22 0.26 0.27 0.22 0.19 0.18 0.15 0.12 0.10 0.12 0.12 0.11 0.10 0.12 0.17 0.19 0.21 0.28 0.31 0.33 0.40 0.47 0.46 0.37 0.27 0.26 0.27 0.28 0.30
0.04 0.04 0.04 0.08 0.11 0.22 0.18 0.07 0.05 0.06 0.05 0.05 0.14 0.16 0.15 0.16 0.15 0.12 0.10 0.09 0.08 0.06 0.05 0.04 0.04 0.05 0.05 0.05 0.09 0.14 0.18 0.25 0.31 0.35 0.39 0.44 0.47 0.47 0.43 0.37 0.36 0.39 0.42 0.42
0.04 0.04 0.03 0.06 0.10 0.13 0.07 0.05 0.06 0.08 0.08 0.03 0.06 0.08 0.07 0.05 0.07 0.08 0.04 0.02 0.01 0.01 0.01 0.01 0.02 0.03 0.04 0.07 0.12 0.19 0.28 0.36 0.40 0.42 0.43 0.46 0.52 0.59 0.59 0.54 0.49 0.49 0.51 0.48
0.04 0.03 0.03 0.04 0.09 0.13 0.07 0.05 0.05 0.06 0.15 0.07 0.04 0.04 0.03 0.03 0.10 0.13 0.04 0.00 0.00 0.00 0.01 0.01 0.03 0.05 0.08 0.12 0.16 0.25 0.35 0.43 0.48 0.47 0.45 0.47 0.53 0.61 0.68 0.68 0.62 0.57 0.59 0.53
0.04 0.04 0.04 0.05 0.07 0.06 0.03 0.03 0.04 0.12 0.19 0.03 0.01 0.01 0.01 0.03 0.07 0.06 0.02 0.00 0.00 0.01 0.01 0.02 0.06 0.09 0.11 0.12 0.18 0.29 0.39 0.46 0.45 0.44 0.47 0.54 0.61 0.67 0.72 0.78 0.77 0.74 0.68 0.63
0.03 0.03 0.03 0.05 0.09 0.10 0.02 0.01 0.02 0.04 0.03 0.01 0.01 0.01 0.01 0.01 0.01 0.00 0.00 0.01 0.01 0.01 0.02 0.04 0.09 0.13 0.13 0.14 0.22 0.32 0.38 0.41 0.45 0.48 0.54 0.61 0.69 0.66 0.70 0.92 0.96 0.98 0.93 0.79
0.01 0.02 0.02 0.03 0.04 0.02 0.01 0.00 0.01 0.01 0.01 0.01 0.01 0.01 0.01 0.01 0.01 0.01 0.01 0.01 0.01 0.01 0.03 0.06 0.11 0.15 0.19 0.25 0.32 0.40 0.38 0.42 0.50 0.59 0.65 0.65 0.66 0.73 0.83 0.93 0.96 0.96 0.93 0.88
0.00 0.01 0.01 0.03 0.02 0.01 0.01 0.01 0.01 0.00 0.00 0.00 0.00 0.01 0.01 0.01 0.01 0.01 0.01 0.02 0.02 0.03 0.06 0.10 0.16 0.25 0.33 0.41 0.44 0.44 0.45 0.52 0.63 0.72 0.77 0.78 0.78 0.76 0.80 0.93 0.95 0.93 0.87 0.85
0.00 0.00 0.02 0.04 0.02 0.01 0.01 0.01 0.00 0.00 0.00 0.00 0.00 0.01 0.01 0.02 0.02 0.02 0.02 0.03 0.04 0.05 0.08 0.13 0.22 0.32 0.36 0.43 0.53 0.55 0.63 0.75 0.83 0.80 0.78 0.80 0.84 0.91 0.95 0.94 0.94 0.92 0.90 0.79
0.01 0.02 0.03 0.04 0.04 0.04 0.03 0.01 0.00 0.00 0.00 0.01 0.01 0.01 0.02 0.03 0.03 0.02 0.03 0.03 0.04 0.07 0.11 0.17 0.25 0.33 0.39 0.48 0.56 0.62 0.72 0.84 0.96 0.94 0.85 0.86 0.88 0.91 0.96 0.96 0.86 0.74 0.67 0.56